Location: Philomena
(55.1756°N, 111.6233°W)
Time: 10:20:18
(UTC+00:00)

PCSat - Pass Details

Date: 05 December 2023
Orbit: 784 x 791 km, 67.0° (Epoch: 23 February)

Event Time Altitude Azimuth Distance (km) Brightness Sun altitude
Exits shadow 10:47:20 19° 99° (E) 1,788 11.8 -39.3°
Drops below altitude 10° 10:50:30 10° 64° (ENE) 2,359 12.7 -38.9°
Sets 10:53:30 0° 48° (NE) 3,295 13.5 -38.4°
